User: anonymous
Location: Nebula Knoll Observatory
(43.6666°N, 71.0000°W)
Time: 03:30:29
(UTC-04:00)
Language:

Cosmos 1782 - Orbit

View from above orbital plane
View from above orbital plane
View from above satellite
View from above satellite

Ground track
Ground track

The orbit data is extracted from the following two-line orbital elements,

1 16986U 86074A   14242.79682615  .00001991  00000-0  14558-3 0  8302
2 16986 082.5079 033.1160 0011258 219.6457 140.3947 15.03062730517185
Epoch (UTC): 30 August 2014 19:07:25
Eccentricity: 0.0011258
inclination: 82.5079°
perigee height: 549 km
apogee height: 565 km
right ascension of ascending node: 33.1160°
argument of perigee: 219.6457°
revolutions per day: 15.03062730
mean anomaly at epoch: 140.3947°
orbit number at epoch: 51718

The dashed part of the orbit path shows where the satellite is in the earth's shadow,  

DLR